• In Austria
  • List of Countries
  • For 7 days
  • Water Temperature
  • Satellite Maps
  • Weather Map
  • News
  • Weather Widgets
  • user-avatar
    Login

    Hourly Weather Warszowka

    Today, 16 August, Thursday

    Time Temperature Precipitation Wind Pressure Humidity
    00:00 +19°C° 0 mm 1 mps 755 mmHg 76%
    01:00 +19°C° 0 mm 1 mps 755 mmHg 78%
    02:00 +18°C° 0 mm 1 mps 755 mmHg 80%
    03:00 +16°C° 0 mm 0 mps 755 mmHg 81%
    04:00 +16°C° 0 mm 0 mps 755 mmHg 83%
    05:00 +17°C° 0 mm 0 mps 755 mmHg 78%
    06:00 +18°C° 0 mm 0 mps 755 mmHg 74%
    07:00 +19°C° 0 mm 0 mps 755 mmHg 70%
    08:00 +21°C° 0 mm 0 mps 755 mmHg 64%
    09:00 +22°C° 0 mm 0 mps 755 mmHg 58%
    10:00 +26°C° 0 mm 1 mps 755 mmHg 53%
    11:00 +26°C° 0 mm 1 mps 755 mmHg 50%
    12:00 +27°C° 0 mm 1 mps 755 mmHg 47%
    13:00 +28°C° 0 mm 1 mps 754 mmHg 44%
    14:00 +27°C° 0 mm 1 mps 754 mmHg 45%
    15:00 +27°C° 0 mm 1 mps 754 mmHg 46%
    16:00 +27°C° 0 mm 1 mps 754 mmHg 47%
    17:00 +26°C° 0 mm 1 mps 753 mmHg 49%
    18:00 +25°C° 0 mm 1 mps 753 mmHg 52%
    19:00 +25°C° 0 mm 1 mps 753 mmHg 54%
    20:00 +24°C° 0 mm 1 mps 753 mmHg 55%
    21:00 +23°C° 0 mm 1 mps 754 mmHg 56%
    22:00 +23°C° 0 mm 1 mps 754 mmHg 57%
    23:00 +21°C° 0 mm 2 mps 754 mmHg 60%

    Tomorrow, 17 August, Friday

    Time Temperature Precipitation Wind Pressure Humidity
    00:00 +20°C° 0 mm 2 mps 754 mmHg 63%
    01:00 +20°C° 0 mm 2 mps 753 mmHg 66%
    02:00 +19°C° 0 mm 2 mps 753 mmHg 69%
    03:00 +19°C° 0 mm 2 mps 753 mmHg 72%
    04:00 +19°C° 0 mm 2 mps 753 mmHg 75%
    05:00 +20°C° 0 mm 2 mps 753 mmHg 74%
    06:00 +21°C° 0 mm 2 mps 753 mmHg 73%
    07:00 +23°C° 0 mm 2 mps 753 mmHg 71%
    08:00 +24°C° 0 mm 3 mps 753 mmHg 65%
    09:00 +26°C° 0 mm 3 mps 753 mmHg 59%
    10:00 +27°C° 0 mm 3 mps 753 mmHg 53%
    11:00 +28°C° 0 mm 3 mps 752 mmHg 51%
    12:00 +29°C° 0 mm 3 mps 752 mmHg 48%
    13:00 +29°C° 0 mm 3 mps 752 mmHg 46%
    14:00 +29°C° 0 mm 2 mps 752 mmHg 47%
    15:00 +29°C° 0 mm 2 mps 751 mmHg 47%
    16:00 +29°C° 0 mm 2 mps 751 mmHg 48%
    17:00 +28°C° 0 mm 2 mps 751 mmHg 51%
    18:00 +27°C° 0 mm 2 mps 751 mmHg 54%
    19:00 +26°C° 0 mm 2 mps 751 mmHg 58%
    20:00 +25°C° 0 mm 2 mps 751 mmHg 60%
    21:00 +24°C° 0 mm 2 mps 752 mmHg 63%
    22:00 +23°C° 0 mm 2 mps 752 mmHg 66%
    23:00 +23°C° 0 mm 2 mps 752 mmHg 69%

    Day after tomorrow, 18 August, Saturday

    Time Temperature Precipitation Wind Pressure Humidity
    00:00 +21°C° 0 mm 2 mps 752 mmHg 71%
    01:00 +22°C° 0 mm 1 mps 752 mmHg 74%
    02:00 +21°C° 0 mm 1 mps 752 mmHg 77%
    03:00 +21°C° 0 mm 1 mps 752 mmHg 79%
    04:00 +21°C° 0 mm 1 mps 752 mmHg 81%
    05:00 +22°C° 0 mm 1 mps 752 mmHg 77%
    06:00 +23°C° 0 mm 1 mps 753 mmHg 73%
    07:00 +24°C° 0 mm 1 mps 753 mmHg 69%
    08:00 +26°C° 0 mm 1 mps 753 mmHg 62%
    09:00 +27°C° 0 mm 1 mps 753 mmHg 56%
    10:00 +29°C° 0 mm 1 mps 753 mmHg 49%
    11:00 +29°C° 0 mm 1 mps 753 mmHg 47%
    12:00 +30°C° 0 mm 2 mps 753 mmHg 44%
    13:00 +30°C° 0 mm 2 mps 753 mmHg 42%
    14:00 +30°C° 0 mm 2 mps 753 mmHg 43%
    15:00 +30°C° 0 mm 2 mps 753 mmHg 44%
    16:00 +30°C° 0 mm 2 mps 753 mmHg 45%
    17:00 +28°C° 0.1 mm 2 mps 754 mmHg 50%
    18:00 +27°C° 0.1 mm 2 mps 754 mmHg 56%
    19:00 +26°C° 0.1 mm 2 mps 754 mmHg 61%
    20:00 +25°C° 0.6 mm 3 mps 754 mmHg 68%
    21:00 +22°C° 0.6 mm 3 mps 755 mmHg 75%
    22:00 +21°C° 0.6 mm 3 mps 755 mmHg 82%
    23:00 +21°C° 0.1 mm 3 mps 755 mmHg 85%

    19 August, Sunday

    Time Temperature Precipitation Wind Pressure Humidity
    00:00 +20°C° 0.1 mm 3 mps 755 mmHg 87%
    01:00 +19°C° 0.1 mm 3 mps 756 mmHg 89%
    02:00 +19°C° 0 mm 2 mps 756 mmHg 89%
    03:00 +18°C° 0 mm 2 mps 756 mmHg 89%
    04:00 +18°C° 0 mm 2 mps 756 mmHg 90%
    05:00 +20°C° 0 mm 1 mps 756 mmHg 83%
    06:00 +21°C° 0 mm 1 mps 757 mmHg 77%
    07:00 +22°C° 0 mm 1 mps 757 mmHg 71%
    08:00 +23°C° 0 mm 1 mps 757 mmHg 63%
    09:00 +24°C° 0 mm 2 mps 757 mmHg 55%
    10:00 +26°C° 0 mm 2 mps 757 mmHg 47%
    11:00 +27°C° 0 mm 2 mps 757 mmHg 44%
    12:00 +27°C° 0 mm 2 mps 756 mmHg 41%
    13:00 +28°C° 0 mm 2 mps 756 mmHg 38%
    14:00 +28°C° 0 mm 2 mps 756 mmHg 38%
    15:00 +29°C° 0 mm 2 mps 756 mmHg 38%
    16:00 +29°C° 0 mm 2 mps 756 mmHg 37%
    17:00 +27°C° 0 mm 2 mps 756 mmHg 41%
    18:00 +26°C° 0 mm 1 mps 756 mmHg 46%
    19:00 +24°C° 0 mm 1 mps 756 mmHg 50%
    20:00 +24°C° 0 mm 1 mps 756 mmHg 51%
    21:00 +23°C° 0 mm 1 mps 756 mmHg 52%
    22:00 +23°C° 0 mm 1 mps 756 mmHg 53%
    23:00 +22°C° 0 mm 1 mps 756 mmHg 55%

    20 August, Monday

    Time Temperature Precipitation Wind Pressure Humidity
    00:00 +22°C° 0 mm 1 mps 756 mmHg 57%
    01:00 +21°C° 0 mm 1 mps 756 mmHg 59%
    02:00 +21°C° 0 mm 1 mps 756 mmHg 60%
    03:00 +20°C° 0 mm 1 mps 756 mmHg 61%
    04:00 +20°C° 0 mm 1 mps 756 mmHg 62%
    05:00 +21°C° 0 mm 1 mps 756 mmHg 60%
    06:00 +21°C° 0 mm 2 mps 756 mmHg 59%
    07:00 +23°C° 0 mm 2 mps 756 mmHg 57%
    08:00 +25°C° 0 mm 2 mps 756 mmHg 52%
    09:00 +26°C° 0 mm 2 mps 756 mmHg 47%
    10:00 +28°C° 0 mm 3 mps 756 mmHg 42%
    11:00 +29°C° 0 mm 3 mps 755 mmHg 40%
    12:00 +30°C° 0 mm 3 mps 755 mmHg 37%
    13:00 +31°C° 0 mm 3 mps 754 mmHg 35%
    14:00 +31°C° 0 mm 3 mps 754 mmHg 35%
    15:00 +31°C° 0 mm 2 mps 754 mmHg 35%
    16:00 +31°C° 0 mm 2 mps 754 mmHg 35%
    17:00 +30°C° 0 mm 2 mps 754 mmHg 39%
    18:00 +28°C° 0 mm 2 mps 753 mmHg 43%
    19:00 +27°C° 0 mm 1 mps 753 mmHg 47%
    20:00 +26°C° 0 mm 2 mps 753 mmHg 47%
    21:00 +26°C° 0 mm 2 mps 754 mmHg 48%
    22:00 +26°C° 0 mm 2 mps 754 mmHg 49%
    23:00 +25°C° 0 mm 2 mps 754 mmHg 51%

    21 August, Tuesday

    Time Temperature Precipitation Wind Pressure Humidity
    00:00 +25°C° 0 mm 2 mps 754 mmHg 52%
    01:00 +24°C° 0 mm 2 mps 754 mmHg 54%
    02:00 +24°C° 0 mm 2 mps 754 mmHg 58%
    03:00 +23°C° 0 mm 2 mps 754 mmHg 62%
    04:00 +21°C° 0 mm 2 mps 754 mmHg 66%
    05:00 +23°C° 0 mm 2 mps 754 mmHg 66%
    06:00 +24°C° 0 mm 2 mps 754 mmHg 66%
    07:00 +24°C° 0 mm 2 mps 754 mmHg 65%
    08:00 +26°C° 0 mm 2 mps 754 mmHg 60%
    09:00 +27°C° 0 mm 3 mps 754 mmHg 56%
    10:00 +29°C° 0 mm 3 mps 754 mmHg 51%
    11:00 +29°C° 0 mm 3 mps 754 mmHg 49%
    12:00 +30°C° 0 mm 3 mps 754 mmHg 48%
    13:00 +30°C° 0 mm 3 mps 753 mmHg 46%
    14:00 +30°C° 0 mm 3 mps 753 mmHg 47%
    15:00 +30°C° 0 mm 3 mps 753 mmHg 48%
    16:00 +30°C° 0 mm 3 mps 753 mmHg 49%
    17:00 +28°C° 0 mm 2 mps 753 mmHg 53%
    18:00 +27°C° 0 mm 2 mps 753 mmHg 58%
    19:00 +26°C° 0 mm 2 mps 753 mmHg 62%
    20:00 +25°C° 0 mm 2 mps 753 mmHg 64%
    21:00 +24°C° 0 mm 2 mps 753 mmHg 66%
    22:00 +24°C° 0 mm 2 mps 753 mmHg 68%
    23:00 +23°C° 0 mm 2 mps 753 mmHg 69%
    Show more